Regional Weather Roundup
Issued by NWS

Home | Current Version | Previous Version | Text Only | Print | Product List | Glossary Off
Versions: 1 2 3 4 5 6 7 8 9 10 11 12 13 14 15 16 17 18 19 20 21 22 23 24 25 26 27 28 29 30 31 32 33 34 35 36 37 38 39 40 41 42 43 44 45 46 47 48 49 50

000
ASUS43 KMPX 201110
RWRMN
WEATHER ROUNDUP FOR MINNESOTA
NATIONAL WEATHER SERVICE TWIN CITIES/CHANHASSEN MN
600 AM CDT SUN AUG 20 2017


NOTE: "FAIR" INDICATES FEW OR NO CLOUDS BELOW 12,000 FEET WITH NO
SIGNIFICANT WEATHER AND/OR OBSTRUCTIONS TO VISIBILITY. N/A MEANS
CURRENT SKY AND/OR WEATHER CONDITIONS ARE NOT AVAILABLE.

MNZ060>063-068>070-201200-
   Twin Cities Metro

CITY           SKY/WX    TMP DP  RH WIND       PRES   REMARKS
TWIN CITIES    CLOUDY    67  61  81 SE7       29.89R
ST PAUL        CLOUDY    65  64  97 SE7       29.89R
CRYSTAL        CLOUDY    67  61  81 S7        29.87R
BLAINE         CLOUDY    66  64  94 S6        29.88R
LAKEVILLE      CLOUDY    61  61 100 CALM      29.88F
EDEN PRAIRIE   CLOUDY    67  64  90 SE6       29.87R
SOUTH ST PAUL  CLOUDY    65  64  96 CALM      29.89R
LAKE ELMO      FAIR      64  63  94 SE5       29.91R
$$
MNZ001>005-007-008-013>017-022>024-027-028-201200-
   Northwest Minnesota

CITY           SKY/WX    TMP DP  RH WIND       PRES   REMARKS
BEMIDJI        CLOUDY    64  61  88 SW7       29.81R
HALLOCK        PTCLDY    61  52  72 NW8       29.83R
ROSEAU         CLEAR     63  57  82 W8        29.78R
WARROAD        CLEAR     63  59  88 W6        29.76R
THIEF RVR FALL CLEAR     61  55  81 NW12      29.84R
CROOKSTON      CLEAR     59  54  82 NW9       29.84R
FOSSTON        CLEAR     59  57  94 W8        29.84R
DETROIT LAKES  CLEAR     63  61  94 NW8       29.87R
MOORHEAD       CLEAR     61  54  77 NW9       29.89R
PARK RAPIDS    CLEAR     62  60  93 SW7       29.83R
MAHNOMEN       FAIR      60  58  94 W7        29.85R
$$
MNZ006-009>011-018-025>026-201200-
   North Central Minnesota

CITY           SKY/WX    TMP DP  RH WIND       PRES   REMARKS
BAUDETTE       CLEAR     63  62  97 W7        29.73R
FLAG ISLAND      N/A     66  61  82 NW9G16    29.72R HAZE
INTL FALLS     CLEAR     61  59  93 CALM      29.75R
WASKISH        CLOUDY    68  64  88 W13G20    29.77R
BIG FORK       CLEAR     63  61  94 S7        29.79S
LONGVILLE      CLEAR     64  63  94 SW7       29.82R
GRAND RAPIDS   CLEAR     62  61  96 S8        29.84R
CRANE LAKE     CLEAR     59  57  94 S5        29.79S
ORR            CLEAR     59  55  88 S5        29.77R
COOK           CLEAR     63  61  94 S6        29.81R
WALKER         FAIR      63  61  94 SW8       29.82R
$$
MNZ012-019>021-037-201200-
   Northeast Minnesota

CITY           SKY/WX    TMP DP  RH WIND       PRES   REMARKS
DULUTH         PTCLDY    60  60 100 S8        29.86S
ELY            CLEAR     59  57  94 S6        29.83S
HIBBING        FOG       50  50 100 CALM      29.83R VSB 3/4
EVELETH        FOG       53  50  92 CALM      29.85R VSB 3/4
DULUTH HARBOR  CLEAR     64  61  88 CALM      29.86S
TWO HARBORS    CLEAR     57  54  88 CALM      29.85S HAZE
SILVER BAY     CLEAR     54  52  94 CALM      29.85S
GRAND MARAIS     N/A     56  56 100 CALM      29.86R
G MARAIS ARPRT CLEAR     52  48  87 CALM      29.89R FOG
$$
MNZ029>031-032-039>041-046>048-054>057-064-201200-
   West Central Minnesota

CITY           SKY/WX    TMP DP  RH WIND       PRES   REMARKS
FERGUS FALLS   PTCLDY    63  63 100 NW6       29.86R FOG
WHEATON        MOCLDY    66  61  82 W8        29.90R
MORRIS         CLOUDY    63  61  94 W3        29.86S FOG
ALEXANDRIA     CLOUDY    66  63  90 SW10      29.87R
ELBOW LAKE     FAIR      62  62  99 SW7       29.86R
WADENA         CLEAR     63  63 100 SW5       29.84S
GLENWOOD       LGT RAIN  63  63 100 SW6       29.87R
APPLETON       PTCLDY    63  59  88 CALM      29.87R
BENSON         CLEAR     61  61 100 CALM      29.89R FOG
ORTONVILLE     CLOUDY    64  63  94 MISG      29.88R
MADISON        CLOUDY    63  63 100 N3        29.88R
WILLMAR        FAIR      63  63 100 CALM      29.88R FOG
$$
MNZ033>034-036-042>043-049>051-058-059-201200-
   Central Minnesota

CITY           SKY/WX    TMP DP  RH WIND       PRES   REMARKS
ST CLOUD       CLOUDY    61  61 100 VRB3      29.86R
SAUK CENTRE    FAIR      62  62  99 S3        29.86R
PAYNESVILLE    CLOUDY    64  63  97 S7        29.87R
AITKIN         CLOUDY    64  63  94 S7        29.83R
PINE RIVER     PTCLDY    59  59 100 CALM      29.87R FOG
BRAINERD       CLOUDY    64  62  93 S6        29.84R
STAPLES        PTCLDY    63  63 100 SW3       29.84R
LONG PRAIRIE   FAIR      61  61 100 S3        29.86R
LITTLE FALLS   CLOUDY    61  59  94 S3        29.85S FOG
LITCHFIELD     CLOUDY    66  64  94 CALM      29.88R
BUFFALO        PTCLDY    64  61  88 CALM      29.88R
MAPLE LAKE     CLOUDY    64  64  97 S3        29.87S
HUTCHINSON     MOCLDY    65  64  99 CALM      29.89R
$$
MNZ037-044-045-052-053-201200-
   East Central Minnesota

CITY           SKY/WX    TMP DP  RH WIND       PRES   REMARKS
PRINCETON      CLOUDY    63  63 100 SE5       29.86S
MORA           PTCLDY    59  59 100 CALM      29.87F
CAMBRIDGE      CLOUDY    64  63  94 SE5       29.87S
RUSH CITY      CLOUDY    61  60  95 S5        29.87S FOG
MOOSE LAKE     FOG       55  54  94 CALM      29.84F VSB 1/2
HINCKLEY       FAIR      61  61 100 SE3       29.86F
CLOQUET        CLEAR     61  57  88 S3        29.86S FOG
MCGREGOR       CLOUDY    63  61  94 S6        29.84F
$$
MNZ071>073-080-081-089-090-097-098-201200-
   Southwest Minnesota

CITY           SKY/WX    TMP DP  RH WIND       PRES   REMARKS
MONTEVIDEO     CLEAR     63  63 100 SW3       29.87R
GRANITE FALLS  CLOUDY    63  62  97 SE5       29.88R
CANBY          CLEAR     66  62  86 CALM      29.88R
MARSHALL       CLOUDY    64  63  96 CALM      29.87R
REDWOOD FALLS  CLOUDY    64  62  93 SE3       29.86S
OLIVIA         CLOUDY    63  61  94 S3        29.87R
PIPESTONE      CLOUDY    64  63  94 CALM      29.89R
WINDOM         CLOUDY    66  63  88 SW3       29.89R
WORTHINGTON    CLOUDY    67  63  87 SW6       29.90R
JACKSON        CLOUDY    64  61  88 CALM      29.90R
TRACY          CLOUDY    62  62  99 CALM      29.88R
SLAYTON        CLOUDY    61  57  87 CALM      29.89R
$$
MNZ065>067-074>077-082>085-091>093-201200-
   South Central Minnesota

CITY           SKY/WX    TMP DP  RH WIND       PRES   REMARKS
MANKATO        CLOUDY    66  64  93 S6        29.89R
NEW ULM        CLOUDY    66  64  94 CALM      29.87S
ST JAMES       CLOUDY    66  64  94 SE3       29.89R
FAIRMONT       CLOUDY    67  65  93 S9        29.89S
GLENCOE        CLOUDY    66  66  99 CALM      29.87R
FARIBAULT      CLOUDY    66  63  88 S7        29.89S
OWATONNA       CLOUDY    66  63  88 S13       29.90R
WASECA         CLOUDY    64  61  88 S5        29.91S
ALBERT LEA     CLOUDY    66  64  94 S3        29.91R
$$
MNZ078>079-086>088-094>096-201200-
   Southeast Minnesota

CITY           SKY/WX    TMP DP  RH WIND       PRES   REMARKS
ROCHESTER      CLOUDY    63  62  97 S9        29.94R
RED WING       CLOUDY    66  61  82 SE6       29.90R
DODGE CENTER   CLOUDY    66  63  88 S9        29.92S
WINONA         CLOUDY    61  61 100 SE5       29.94S
AUSTIN         CLOUDY    64  61  88 S5        29.92S
PRESTON        CLOUDY    62  59  90 S8        29.95S
$$
ABBREVIATIONS USED IN REMARKS
   TC - TEMPERATURES IN CELSIUS
  WCI - WIND CHILL INDEX
   HX - HEAT INDEX
  VSB - VISIBILITY
$$



USA.gov is the U.S. government's official web portal to all federal, state and local government web resources and services.